Year,Month,Day,Hour,Minute,Value (Times are PST for temperature in C)
2014,04,28,00,00,5.60
2014,04,28,00,01,5.60
2014,04,28,00,02,5.60
2014,04,28,00,03,5.70
2014,04,28,00,04,5.70
2014,04,28,00,05,5.70
2014,04,28,00,06,5.80
2014,04,28,00,07,5.80
2014,04,28,00,08,5.80
2014,04,28,00,09,5.80
2014,04,28,00,10,5.80
2014,04,28,00,11,5.80
2014,04,28,00,12,5.80
2014,04,28,00,13,5.70
2014,04,28,00,14,5.70
2014,04,28,00,15,5.70
2014,04,28,00,16,5.70
2014,04,28,00,17,5.60
2014,04,28,00,18,5.60
2014,04,28,00,19,5.50
2014,04,28,00,20,5.50
2014,04,28,00,21,5.50
2014,04,28,00,22,5.40
2014,04,28,00,23,5.40
2014,04,28,00,24,5.40
2014,04,28,00,25,5.30
2014,04,28,00,26,5.30
2014,04,28,00,27,5.20
2014,04,28,00,28,5.20
2014,04,28,00,29,5.20
2014,04,28,00,30,5.10
2014,04,28,00,31,5.10
2014,04,28,00,32,5.10
2014,04,28,00,33,5.00
2014,04,28,00,34,5.00
2014,04,28,00,35,5.00
2014,04,28,00,36,4.90
2014,04,28,00,37,4.90
2014,04,28,00,38,4.90
2014,04,28,00,39,4.90
2014,04,28,00,40,4.90
2014,04,28,00,41,4.80
2014,04,28,00,42,4.80
2014,04,28,00,43,4.80
2014,04,28,00,44,4.80
2014,04,28,00,45,4.80
2014,04,28,00,46,4.80
2014,04,28,00,47,4.80
2014,04,28,00,48,4.70
2014,04,28,00,49,4.70
2014,04,28,00,50,4.70
2014,04,28,00,51,4.70
2014,04,28,00,52,4.70
2014,04,28,00,53,4.60
2014,04,28,00,54,4.60
2014,04,28,00,55,4.60
2014,04,28,00,56,4.60
2014,04,28,00,57,4.50
2014,04,28,00,58,4.50
2014,04,28,00,59,4.50
2014,04,28,01,00,4.40
2014,04,28,01,01,4.40
2014,04,28,01,02,4.40
2014,04,28,01,03,4.30
2014,04,28,01,04,4.30
2014,04,28,01,05,4.30
2014,04,28,01,06,4.30
2014,04,28,01,07,4.30
2014,04,28,01,08,4.30
2014,04,28,01,09,4.30
2014,04,28,01,10,4.20
2014,04,28,01,11,4.20
2014,04,28,01,12,4.20
2014,04,28,01,13,4.20
2014,04,28,01,14,4.20
2014,04,28,01,15,4.20
2014,04,28,01,16,4.20
2014,04,28,01,17,4.20
2014,04,28,01,18,4.20
2014,04,28,01,19,4.20
2014,04,28,01,20,4.20
2014,04,28,01,21,4.20
2014,04,28,01,22,4.20
2014,04,28,01,23,4.20
2014,04,28,01,24,4.20
2014,04,28,01,25,4.20
2014,04,28,01,26,4.10
2014,04,28,01,27,4.10
2014,04,28,01,28,4.10
2014,04,28,01,29,4.10
2014,04,28,01,30,4.00
2014,04,28,01,31,4.00
2014,04,28,01,32,3.90
2014,04,28,01,33,3.90
2014,04,28,01,34,3.90
2014,04,28,01,35,3.80
2014,04,28,01,36,3.80
2014,04,28,01,37,3.80
2014,04,28,01,38,3.80
2014,04,28,01,39,3.80
2014,04,28,01,40,3.70
2014,04,28,01,41,3.70
2014,04,28,01,42,3.70
2014,04,28,01,43,3.70
2014,04,28,01,44,3.60
2014,04,28,01,45,3.60
2014,04,28,01,46,3.60
2014,04,28,01,47,3.60
2014,04,28,01,48,3.60
2014,04,28,01,49,3.60
2014,04,28,01,50,3.60
2014,04,28,01,51,3.60
2014,04,28,01,52,3.60
2014,04,28,01,53,3.60
2014,04,28,01,54,3.50
2014,04,28,01,55,3.50
2014,04,28,01,56,3.50
2014,04,28,01,57,3.50
2014,04,28,01,58,3.50
2014,04,28,01,59,3.50
2014,04,28,02,00,3.50
2014,04,28,02,01,3.50
2014,04,28,02,02,3.60
2014,04,28,02,03,3.60
2014,04,28,02,04,3.60
2014,04,28,02,05,3.60
2014,04,28,02,06,3.60
2014,04,28,02,07,3.60
2014,04,28,02,08,3.60
2014,04,28,02,09,3.50
2014,04,28,02,10,3.50
2014,04,28,02,11,3.40
2014,04,28,02,12,3.40
2014,04,28,02,13,3.40
2014,04,28,02,14,3.30
2014,04,28,02,15,3.30
2014,04,28,02,16,3.30
2014,04,28,02,17,3.30
2014,04,28,02,18,3.30
2014,04,28,02,19,3.30
2014,04,28,02,20,3.30
2014,04,28,02,21,3.30
2014,04,28,02,22,3.30
2014,04,28,02,23,3.30
2014,04,28,02,24,3.30
2014,04,28,02,25,3.20
2014,04,28,02,26,3.20
2014,04,28,02,27,3.20
2014,04,28,02,28,3.20
2014,04,28,02,29,3.20
2014,04,28,02,30,3.20
2014,04,28,02,31,3.20
2014,04,28,02,32,3.20
2014,04,28,02,33,3.20
2014,04,28,02,34,3.20
2014,04,28,02,35,3.20
2014,04,28,02,36,3.20
2014,04,28,02,37,3.10
2014,04,28,02,38,3.10
2014,04,28,02,39,3.10
2014,04,28,02,40,3.10
2014,04,28,02,41,3.10
2014,04,28,02,42,3.00
2014,04,28,02,43,3.00
2014,04,28,02,44,2.90
2014,04,28,02,45,2.90
2014,04,28,02,46,2.90
2014,04,28,02,47,2.90
2014,04,28,02,48,2.90
2014,04,28,02,49,2.90
2014,04,28,02,50,2.90
2014,04,28,02,51,2.90
2014,04,28,02,52,2.90
2014,04,28,02,53,2.90
2014,04,28,02,54,2.80
2014,04,28,02,55,2.80
2014,04,28,02,56,2.80
2014,04,28,02,57,2.80
2014,04,28,02,58,2.80
2014,04,28,02,59,2.80
2014,04,28,03,00,2.80
2014,04,28,03,01,2.70
2014,04,28,03,02,2.70
2014,04,28,03,03,2.70
2014,04,28,03,04,2.70
2014,04,28,03,05,2.70
2014,04,28,03,06,2.70
2014,04,28,03,07,2.70
2014,04,28,03,08,2.70
2014,04,28,03,09,2.70
2014,04,28,03,10,2.70
2014,04,28,03,11,2.70
2014,04,28,03,12,2.70
2014,04,28,03,13,2.70
2014,04,28,03,14,2.70
2014,04,28,03,15,2.70
2014,04,28,03,16,2.70
2014,04,28,03,17,2.70
2014,04,28,03,18,2.70
2014,04,28,03,19,2.70
2014,04,28,03,20,2.70
2014,04,28,03,21,2.70
2014,04,28,03,22,2.70
2014,04,28,03,23,2.70
2014,04,28,03,24,2.70
2014,04,28,03,25,2.70
2014,04,28,03,26,2.70
2014,04,28,03,27,2.70
2014,04,28,03,28,2.70
2014,04,28,03,29,2.70
2014,04,28,03,30,2.70
2014,04,28,03,31,2.70
2014,04,28,03,32,2.70
2014,04,28,03,33,2.70
2014,04,28,03,34,2.70
2014,04,28,03,35,2.60
2014,04,28,03,36,2.60
2014,04,28,03,37,2.60
2014,04,28,03,38,2.60
2014,04,28,03,39,2.60
2014,04,28,03,40,2.60
2014,04,28,03,41,2.60
2014,04,28,03,42,2.50
2014,04,28,03,43,2.50
2014,04,28,03,44,2.50
2014,04,28,03,45,2.50
2014,04,28,03,46,2.50
2014,04,28,03,47,2.40
2014,04,28,03,48,2.50
2014,04,28,03,49,2.50
2014,04,28,03,50,2.50
2014,04,28,03,51,2.50
2014,04,28,03,52,2.60
2014,04,28,03,53,2.60
2014,04,28,03,54,2.60
2014,04,28,03,55,2.60
2014,04,28,03,56,2.60
2014,04,28,03,57,2.60
2014,04,28,03,58,2.50
2014,04,28,03,59,2.50
2014,04,28,04,00,2.40
2014,04,28,04,01,2.40
2014,04,28,04,02,2.40
2014,04,28,04,03,2.40
2014,04,28,04,04,2.40
2014,04,28,04,05,2.40
2014,04,28,04,06,2.40
2014,04,28,04,07,2.40
2014,04,28,04,08,2.40
2014,04,28,04,09,2.40
2014,04,28,04,10,2.30
2014,04,28,04,11,2.30
2014,04,28,04,12,2.30
2014,04,28,04,13,2.30
2014,04,28,04,14,2.30
2014,04,28,04,15,2.30
2014,04,28,04,16,2.30
2014,04,28,04,17,2.20
2014,04,28,04,18,2.20
2014,04,28,04,19,2.20
2014,04,28,04,20,2.20
2014,04,28,04,21,2.20
2014,04,28,04,22,2.20
2014,04,28,04,23,2.20
2014,04,28,04,24,2.20
2014,04,28,04,25,2.20
2014,04,28,04,26,2.20
2014,04,28,04,27,2.20
2014,04,28,04,28,2.20
2014,04,28,04,29,2.20
2014,04,28,04,30,2.20
2014,04,28,04,31,2.20
2014,04,28,04,32,2.20
2014,04,28,04,33,2.20
2014,04,28,04,34,2.20
2014,04,28,04,35,2.20
2014,04,28,04,36,2.20
2014,04,28,04,37,2.20
2014,04,28,04,38,2.20
2014,04,28,04,39,2.20
2014,04,28,04,40,2.20
2014,04,28,04,41,2.20
2014,04,28,04,42,2.20
2014,04,28,04,43,2.20
2014,04,28,04,44,2.20
2014,04,28,04,45,2.20
2014,04,28,04,46,2.20
2014,04,28,04,47,2.20
2014,04,28,04,48,2.20
2014,04,28,04,49,2.20
2014,04,28,04,50,2.20
2014,04,28,04,51,2.10
2014,04,28,04,52,2.10
2014,04,28,04,53,2.10
2014,04,28,04,54,2.10
2014,04,28,04,55,2.10
2014,04,28,04,56,2.10
2014,04,28,04,57,2.10
2014,04,28,04,58,2.10
2014,04,28,04,59,2.10
2014,04,28,05,00,2.00
2014,04,28,05,01,2.00
2014,04,28,05,02,2.00
2014,04,28,05,03,2.00
2014,04,28,05,04,2.00
2014,04,28,05,05,2.00
2014,04,28,05,06,2.00
2014,04,28,05,07,2.00
2014,04,28,05,08,2.00
2014,04,28,05,09,2.00
2014,04,28,05,10,2.00
2014,04,28,05,11,2.00
2014,04,28,05,12,2.00
2014,04,28,05,13,2.00
2014,04,28,05,14,2.00
2014,04,28,05,15,2.00
2014,04,28,05,16,2.00
2014,04,28,05,17,2.10
2014,04,28,05,18,2.10
2014,04,28,05,19,2.10
2014,04,28,05,20,2.10
2014,04,28,05,21,2.10
2014,04,28,05,22,2.10
2014,04,28,05,23,2.10
2014,04,28,05,24,2.10
2014,04,28,05,25,2.10
2014,04,28,05,26,2.10
2014,04,28,05,27,2.10
2014,04,28,05,28,2.10
2014,04,28,05,29,2.10
2014,04,28,05,30,2.10
2014,04,28,05,31,2.00
2014,04,28,05,32,2.00
2014,04,28,05,33,2.00
2014,04,28,05,34,2.00
2014,04,28,05,35,2.00
2014,04,28,05,36,1.90
2014,04,28,05,37,1.90
2014,04,28,05,38,1.90
2014,04,28,05,39,1.90
2014,04,28,05,40,1.90
2014,04,28,05,41,1.90
2014,04,28,05,42,1.90
2014,04,28,05,43,1.90
2014,04,28,05,44,1.90
2014,04,28,05,45,1.90
2014,04,28,05,46,1.90
2014,04,28,05,47,1.90
2014,04,28,05,48,1.90
2014,04,28,05,49,1.90
2014,04,28,05,50,1.90
2014,04,28,05,51,1.90
2014,04,28,05,52,1.90
2014,04,28,05,53,1.90
2014,04,28,05,54,1.90
2014,04,28,05,55,1.90
2014,04,28,05,56,2.00
2014,04,28,05,57,2.10
2014,04,28,05,58,2.10
2014,04,28,05,59,2.20
2014,04,28,06,00,2.30
2014,04,28,06,01,2.30
2014,04,28,06,02,2.30
2014,04,28,06,03,2.40
2014,04,28,06,04,2.40
2014,04,28,06,05,2.40
2014,04,28,06,06,2.40
2014,04,28,06,07,2.40
2014,04,28,06,08,2.40
2014,04,28,06,09,2.50
2014,04,28,06,10,2.50
2014,04,28,06,11,2.50
2014,04,28,06,12,2.50
2014,04,28,06,13,2.60
2014,04,28,06,14,2.70
2014,04,28,06,15,2.80
2014,04,28,06,16,2.90
2014,04,28,06,17,3.00
2014,04,28,06,18,3.10
2014,04,28,06,19,3.10
2014,04,28,06,20,3.20
2014,04,28,06,21,3.20
2014,04,28,06,22,3.20
2014,04,28,06,23,3.10
2014,04,28,06,24,3.10
2014,04,28,06,25,3.20
2014,04,28,06,26,3.20
2014,04,28,06,27,3.20
2014,04,28,06,28,3.20
2014,04,28,06,29,3.20
2014,04,28,06,30,3.20
2014,04,28,06,31,3.20
2014,04,28,06,32,3.30
2014,04,28,06,33,3.30
2014,04,28,06,34,3.30
2014,04,28,06,35,3.40
2014,04,28,06,36,3.40
2014,04,28,06,37,3.50
2014,04,28,06,38,3.60
2014,04,28,06,39,3.70
2014,04,28,06,40,3.80
2014,04,28,06,41,3.90
2014,04,28,06,42,4.00
2014,04,28,06,43,4.10
2014,04,28,06,44,4.20
2014,04,28,06,45,4.30
2014,04,28,06,46,4.40
2014,04,28,06,47,4.40
2014,04,28,06,48,4.50
2014,04,28,06,49,4.60
2014,04,28,06,50,4.60
2014,04,28,06,51,4.60
2014,04,28,06,52,4.70
2014,04,28,06,53,4.70
2014,04,28,06,54,4.70
2014,04,28,06,55,4.70
2014,04,28,06,56,4.80
2014,04,28,06,57,4.90
2014,04,28,06,58,5.00
2014,04,28,06,59,5.10
2014,04,28,07,00,5.20
2014,04,28,07,01,5.30
2014,04,28,07,02,5.40
2014,04,28,07,03,5.50
2014,04,28,07,04,5.60
2014,04,28,07,05,5.70
2014,04,28,07,06,5.90
2014,04,28,07,07,6.00
2014,04,28,07,08,6.10
2014,04,28,07,09,6.20
2014,04,28,07,10,6.30
2014,04,28,07,11,6.40
2014,04,28,07,12,6.50
2014,04,28,07,13,6.60
2014,04,28,07,14,6.70
2014,04,28,07,15,6.80
2014,04,28,07,16,6.90
2014,04,28,07,17,7.00
2014,04,28,07,18,7.20
2014,04,28,07,19,7.20
2014,04,28,07,20,7.30
2014,04,28,07,21,7.40
2014,04,28,07,22,7.50
2014,04,28,07,23,7.60
2014,04,28,07,24,7.70
2014,04,28,07,25,7.70
2014,04,28,07,26,7.80
2014,04,28,07,27,7.90
2014,04,28,07,28,7.90
2014,04,28,07,29,8.00
2014,04,28,07,30,8.10
2014,04,28,07,31,8.10
2014,04,28,07,32,8.20
2014,04,28,07,33,8.20
2014,04,28,07,34,8.30
2014,04,28,07,35,8.30
2014,04,28,07,36,8.40
2014,04,28,07,37,8.40
2014,04,28,07,38,8.50
2014,04,28,07,39,8.60
2014,04,28,07,40,8.60
2014,04,28,07,41,8.60
2014,04,28,07,42,8.60
2014,04,28,07,43,8.70
2014,04,28,07,44,8.70
2014,04,28,07,45,8.70
2014,04,28,07,46,8.70
2014,04,28,07,47,8.80
2014,04,28,07,48,8.80
2014,04,28,07,49,8.80
2014,04,28,07,50,8.90
2014,04,28,07,51,8.90
2014,04,28,07,52,9.00
2014,04,28,07,53,9.00
2014,04,28,07,54,9.10
2014,04,28,07,55,9.10
2014,04,28,07,56,9.20
2014,04,28,07,57,9.30
2014,04,28,07,58,9.30
2014,04,28,07,59,9.30
2014,04,28,08,00,9.30
2014,04,28,08,01,9.40
2014,04,28,08,02,9.40
2014,04,28,08,03,9.40
2014,04,28,08,04,9.40
2014,04,28,08,05,9.40
2014,04,28,08,06,9.40
2014,04,28,08,07,9.40
2014,04,28,08,08,9.40
2014,04,28,08,09,9.50
2014,04,28,08,10,9.60
2014,04,28,08,11,9.60
2014,04,28,08,12,9.60
2014,04,28,08,13,9.70
2014,04,28,08,14,9.80
2014,04,28,08,15,9.90
2014,04,28,08,16,10.00
2014,04,28,08,17,10.00
2014,04,28,08,18,10.10
2014,04,28,08,19,10.20
2014,04,28,08,20,10.30
2014,04,28,08,21,10.40
2014,04,28,08,22,10.40
2014,04,28,08,23,10.40
2014,04,28,08,24,10.40
2014,04,28,08,25,10.40
2014,04,28,08,26,10.40
2014,04,28,08,27,10.30
2014,04,28,08,28,10.30
2014,04,28,08,29,10.30
2014,04,28,08,30,10.40
2014,04,28,08,31,10.40
2014,04,28,08,32,10.50
2014,04,28,08,33,10.50
2014,04,28,08,34,10.60
2014,04,28,08,35,10.50
2014,04,28,08,36,10.50
2014,04,28,08,37,10.40
2014,04,28,08,38,10.30
2014,04,28,08,39,10.30
2014,04,28,08,40,10.20
2014,04,28,08,41,10.20
2014,04,28,08,42,10.20
2014,04,28,08,43,10.30
2014,04,28,08,44,10.30
2014,04,28,08,45,10.40
2014,04,28,08,46,10.40
2014,04,28,08,47,10.40
2014,04,28,08,48,10.50
2014,04,28,08,49,10.60
2014,04,28,08,50,10.60
2014,04,28,08,51,10.60
2014,04,28,08,52,10.50
2014,04,28,08,53,10.50
2014,04,28,08,54,10.50
2014,04,28,08,55,10.50
2014,04,28,08,56,10.50
2014,04,28,08,57,10.40
2014,04,28,08,58,10.30
2014,04,28,08,59,10.20
2014,04,28,09,00,10.00
2014,04,28,09,01,9.90
2014,04,28,09,02,9.80
2014,04,28,09,03,9.70
2014,04,28,09,04,9.60
2014,04,28,09,05,9.60
2014,04,28,09,06,9.60
2014,04,28,09,07,9.60
2014,04,28,09,08,9.60
2014,04,28,09,09,9.60
2014,04,28,09,10,9.70
2014,04,28,09,11,9.70
2014,04,28,09,12,9.80
2014,04,28,09,13,9.80
2014,04,28,09,14,9.80
2014,04,28,09,15,9.80
2014,04,28,09,16,9.70
2014,04,28,09,17,9.70
2014,04,28,09,18,9.70
2014,04,28,09,19,9.60
2014,04,28,09,20,9.60
2014,04,28,09,21,9.60
2014,04,28,09,22,9.50
2014,04,28,09,23,9.50
2014,04,28,09,24,9.50
2014,04,28,09,25,9.60
2014,04,28,09,26,9.60
2014,04,28,09,27,9.70
2014,04,28,09,28,9.80
2014,04,28,09,29,9.90
2014,04,28,09,30,10.10
2014,04,28,09,31,10.20
2014,04,28,09,32,10.30
2014,04,28,09,33,10.50
2014,04,28,09,34,10.50
2014,04,28,09,35,10.60
2014,04,28,09,36,10.70
2014,04,28,09,37,10.70
2014,04,28,09,38,10.70
2014,04,28,09,39,10.70
2014,04,28,09,40,10.70
2014,04,28,09,41,10.70
2014,04,28,09,42,10.70
2014,04,28,09,43,10.70
2014,04,28,09,44,10.70
2014,04,28,09,45,10.70
2014,04,28,09,46,10.70
2014,04,28,09,47,10.60
2014,04,28,09,48,10.60
2014,04,28,09,49,10.60
2014,04,28,09,50,10.60
2014,04,28,09,51,10.60
2014,04,28,09,52,10.60
2014,04,28,09,53,10.70
2014,04,28,09,54,10.70
2014,04,28,09,55,10.80
2014,04,28,09,56,10.80
2014,04,28,09,57,10.90
2014,04,28,09,58,10.90
2014,04,28,09,59,11.00
2014,04,28,10,00,11.00
2014,04,28,10,01,11.00
2014,04,28,10,02,11.10
2014,04,28,10,03,11.10
2014,04,28,10,04,11.20
2014,04,28,10,05,11.30
2014,04,28,10,06,11.30
2014,04,28,10,07,11.30
2014,04,28,10,08,11.30
2014,04,28,10,09,11.40
2014,04,28,10,10,11.40
2014,04,28,10,11,11.50
2014,04,28,10,12,11.50
2014,04,28,10,13,11.60
2014,04,28,10,14,11.70
2014,04,28,10,15,11.90
2014,04,28,10,16,11.90
2014,04,28,10,17,11.80
2014,04,28,10,18,11.70
2014,04,28,10,19,11.70
2014,04,28,10,20,11.60
2014,04,28,10,21,11.50
2014,04,28,10,22,11.40
2014,04,28,10,23,11.40
2014,04,28,10,24,11.40
2014,04,28,10,25,11.40
2014,04,28,10,26,11.50
2014,04,28,10,27,11.50
2014,04,28,10,28,11.50
2014,04,28,10,29,11.60
2014,04,28,10,30,11.60
2014,04,28,10,31,11.60
2014,04,28,10,32,11.50
2014,04,28,10,33,11.50
2014,04,28,10,34,11.40
2014,04,28,10,35,11.40
2014,04,28,10,36,11.50
2014,04,28,10,37,11.50
2014,04,28,10,38,11.60
2014,04,28,10,39,11.60
2014,04,28,10,40,11.60
2014,04,28,10,41,11.60
2014,04,28,10,42,11.60
2014,04,28,10,43,11.60
2014,04,28,10,44,11.70
2014,04,28,10,45,11.70
2014,04,28,10,46,11.70
2014,04,28,10,47,11.70
2014,04,28,10,48,11.60
2014,04,28,10,49,11.60
2014,04,28,10,50,11.60
2014,04,28,10,51,11.70
2014,04,28,10,52,11.70
2014,04,28,10,53,11.70
2014,04,28,10,54,11.80
2014,04,28,10,55,11.80
2014,04,28,10,56,11.90
2014,04,28,10,57,12.00
2014,04,28,10,58,12.10
2014,04,28,10,59,12.20
2014,04,28,11,00,12.20
2014,04,28,11,01,12.30
2014,04,28,11,02,12.20
2014,04,28,11,03,12.10
2014,04,28,11,04,12.00
2014,04,28,11,05,12.00
2014,04,28,11,06,12.00
2014,04,28,11,07,12.10
2014,04,28,11,08,12.10
2014,04,28,11,09,12.30
2014,04,28,11,10,12.20
2014,04,28,11,11,12.20
2014,04,28,11,12,12.10
2014,04,28,11,13,12.10
2014,04,28,11,14,12.10
2014,04,28,11,15,12.10
2014,04,28,11,16,12.10
2014,04,28,11,17,12.10
2014,04,28,11,18,12.20
2014,04,28,11,19,12.20
2014,04,28,11,20,12.30
2014,04,28,11,21,12.30
2014,04,28,11,22,12.30
2014,04,28,11,23,12.30
2014,04,28,11,24,12.30
2014,04,28,11,25,12.30
2014,04,28,11,26,12.20
2014,04,28,11,27,12.10
2014,04,28,11,28,12.10
2014,04,28,11,29,12.00
2014,04,28,11,30,11.90
2014,04,28,11,31,11.90
2014,04,28,11,32,12.00
2014,04,28,11,33,12.10
2014,04,28,11,34,12.10
2014,04,28,11,35,12.10
2014,04,28,11,36,12.10
2014,04,28,11,37,12.10
2014,04,28,11,38,12.10
2014,04,28,11,39,12.10
2014,04,28,11,40,12.10
2014,04,28,11,41,12.10
2014,04,28,11,42,12.10
2014,04,28,11,43,12.10
2014,04,28,11,44,12.10
2014,04,28,11,45,12.00
2014,04,28,11,46,11.90
2014,04,28,11,47,11.90
2014,04,28,11,48,11.90
2014,04,28,11,49,12.00
2014,04,28,11,50,12.10
2014,04,28,11,51,12.10
2014,04,28,11,52,12.10
2014,04,28,11,53,12.20
2014,04,28,11,54,12.20
2014,04,28,11,55,12.30
2014,04,28,11,56,12.30
2014,04,28,11,57,12.30
2014,04,28,11,58,12.40
2014,04,28,11,59,12.40
2014,04,28,12,00,12.50
2014,04,28,12,01,12.60
2014,04,28,12,02,12.60
2014,04,28,12,03,12.60
2014,04,28,12,04,12.60
2014,04,28,12,05,12.50
2014,04,28,12,06,12.40
2014,04,28,12,07,12.40
2014,04,28,12,08,12.40
2014,04,28,12,09,12.30
2014,04,28,12,10,12.30
2014,04,28,12,11,12.20
2014,04,28,12,12,12.20
2014,04,28,12,13,12.20
2014,04,28,12,14,12.20
2014,04,28,12,15,12.20
2014,04,28,12,16,12.10
2014,04,28,12,17,12.10
2014,04,28,12,18,12.20
2014,04,28,12,19,12.10
2014,04,28,12,20,12.10
2014,04,28,12,21,12.10
2014,04,28,12,22,12.20
2014,04,28,12,23,12.20
2014,04,28,12,24,12.10
2014,04,28,12,25,12.10
2014,04,28,12,26,12.10
2014,04,28,12,27,12.10
2014,04,28,12,28,12.10
2014,04,28,12,29,12.30
2014,04,28,12,30,12.40
2014,04,28,12,31,12.40
2014,04,28,12,32,12.50
2014,04,28,12,33,12.40
2014,04,28,12,34,12.30
2014,04,28,12,35,12.20
2014,04,28,12,36,12.10
2014,04,28,12,37,12.10
2014,04,28,12,38,12.20
2014,04,28,12,39,12.10
2014,04,28,12,40,12.10
2014,04,28,12,41,12.10
2014,04,28,12,42,12.10
2014,04,28,12,43,12.20
2014,04,28,12,44,12.30
2014,04,28,12,45,12.20
2014,04,28,12,46,12.10
2014,04,28,12,47,12.00
2014,04,28,12,48,11.90
2014,04,28,12,49,11.80
2014,04,28,12,50,11.70
2014,04,28,12,51,11.70
2014,04,28,12,52,11.70
2014,04,28,12,53,11.80
2014,04,28,12,54,11.80
2014,04,28,12,55,11.90
2014,04,28,12,56,12.10
2014,04,28,12,57,12.20
2014,04,28,12,58,12.30
2014,04,28,12,59,12.40
2014,04,28,13,00,12.60
2014,04,28,13,01,12.60
2014,04,28,13,02,12.60
2014,04,28,13,03,12.50
2014,04,28,13,04,12.40
2014,04,28,13,05,12.40
2014,04,28,13,06,12.40
2014,04,28,13,07,12.40
2014,04,28,13,08,12.50
2014,04,28,13,09,12.60
2014,04,28,13,10,12.80
2014,04,28,13,11,12.80
2014,04,28,13,12,12.80
2014,04,28,13,13,12.80
2014,04,28,13,14,12.90
2014,04,28,13,15,13.00
2014,04,28,13,16,13.10
2014,04,28,13,17,13.00
2014,04,28,13,18,12.90
2014,04,28,13,19,13.00
2014,04,28,13,20,13.00
2014,04,28,13,21,13.00
2014,04,28,13,22,13.20
2014,04,28,13,23,13.20
2014,04,28,13,24,13.20
2014,04,28,13,25,13.10
2014,04,28,13,26,12.90
2014,04,28,13,27,12.80
2014,04,28,13,28,12.70
2014,04,28,13,29,12.50
2014,04,28,13,30,12.50
2014,04,28,13,31,12.40
2014,04,28,13,32,12.30
2014,04,28,13,33,12.30
2014,04,28,13,34,12.20
2014,04,28,13,35,12.20
2014,04,28,13,36,12.20
2014,04,28,13,37,12.20
2014,04,28,13,38,12.20
2014,04,28,13,39,12.30
2014,04,28,13,40,12.40
2014,04,28,13,41,12.40
2014,04,28,13,42,12.50
2014,04,28,13,43,12.60
2014,04,28,13,44,12.70
2014,04,28,13,45,12.70
2014,04,28,13,46,12.80
2014,04,28,13,47,12.90
2014,04,28,13,48,12.90
2014,04,28,13,49,12.90
2014,04,28,13,50,13.00
2014,04,28,13,51,13.00
2014,04,28,13,52,13.20
2014,04,28,13,53,13.10
2014,04,28,13,54,13.00
2014,04,28,13,55,12.90
2014,04,28,13,56,12.90
2014,04,28,13,57,12.80
2014,04,28,13,58,12.80
2014,04,28,13,59,12.80
2014,04,28,14,00,12.80
2014,04,28,14,01,12.80
2014,04,28,14,02,12.80
2014,04,28,14,03,12.90
2014,04,28,14,04,13.00
2014,04,28,14,05,13.00
2014,04,28,14,06,13.10
2014,04,28,14,07,13.10
2014,04,28,14,08,13.10
2014,04,28,14,09,13.00
2014,04,28,14,10,12.90
2014,04,28,14,11,12.90
2014,04,28,14,12,12.90
2014,04,28,14,13,12.90
2014,04,28,14,14,12.90
2014,04,28,14,15,12.90
2014,04,28,14,16,12.90
2014,04,28,14,17,12.90
2014,04,28,14,18,12.90
2014,04,28,14,19,12.90
2014,04,28,14,20,12.90
2014,04,28,14,21,12.90
2014,04,28,14,22,13.00
2014,04,28,14,23,12.90
2014,04,28,14,24,12.80
2014,04,28,14,25,12.80
2014,04,28,14,26,12.70
2014,04,28,14,27,12.70
2014,04,28,14,28,12.70
2014,04,28,14,29,12.70
2014,04,28,14,30,12.70
2014,04,28,14,31,12.70
2014,04,28,14,32,12.70
2014,04,28,14,33,12.70
2014,04,28,14,34,12.80
2014,04,28,14,35,12.80
2014,04,28,14,36,12.70
2014,04,28,14,37,12.60
2014,04,28,14,38,12.60
2014,04,28,14,39,12.60
2014,04,28,14,40,12.70
2014,04,28,14,41,12.70
2014,04,28,14,42,12.80
2014,04,28,14,43,12.80
2014,04,28,14,44,12.80
2014,04,28,14,45,12.70
2014,04,28,14,46,12.70
2014,04,28,14,47,12.70
2014,04,28,14,48,12.70
2014,04,28,14,49,12.80
2014,04,28,14,50,12.80
2014,04,28,14,51,12.80
2014,04,28,14,52,12.80
2014,04,28,14,53,12.80
2014,04,28,14,54,12.90
2014,04,28,14,55,13.00
2014,04,28,14,56,13.10
2014,04,28,14,57,13.10
2014,04,28,14,58,13.10
2014,04,28,14,59,13.10
2014,04,28,15,00,13.00
2014,04,28,15,01,12.90
2014,04,28,15,02,12.80
2014,04,28,15,03,12.80
2014,04,28,15,04,12.70
2014,04,28,15,05,12.70
2014,04,28,15,06,12.70
2014,04,28,15,07,12.70
2014,04,28,15,08,12.70
2014,04,28,15,09,12.70
2014,04,28,15,10,12.70
2014,04,28,15,11,12.60
2014,04,28,15,12,12.70
2014,04,28,15,13,12.70
2014,04,28,15,14,12.70
2014,04,28,15,15,12.80
2014,04,28,15,16,12.80
2014,04,28,15,17,12.80
2014,04,28,15,18,12.80
2014,04,28,15,19,12.70
2014,04,28,15,20,12.70
2014,04,28,15,21,12.70
2014,04,28,15,22,12.70
2014,04,28,15,23,12.70
2014,04,28,15,24,12.80
2014,04,28,15,25,12.80
2014,04,28,15,26,12.80
2014,04,28,15,27,12.70
2014,04,28,15,28,12.70
2014,04,28,15,29,12.60
2014,04,28,15,30,12.60
2014,04,28,15,31,12.70
2014,04,28,15,32,12.70
2014,04,28,15,33,12.80
2014,04,28,15,34,12.80
2014,04,28,15,35,12.80
2014,04,28,15,36,12.80
2014,04,28,15,37,12.80
2014,04,28,15,38,12.80
2014,04,28,15,39,12.80
2014,04,28,15,40,12.80
2014,04,28,15,41,12.90
2014,04,28,15,42,12.90
2014,04,28,15,43,13.00
2014,04,28,15,44,13.00
2014,04,28,15,45,13.00
2014,04,28,15,46,13.00
2014,04,28,15,47,13.00
2014,04,28,15,48,13.00
2014,04,28,15,49,13.00
2014,04,28,15,50,12.90
2014,04,28,15,51,12.90
2014,04,28,15,52,12.90
2014,04,28,15,53,12.80
2014,04,28,15,54,12.80
2014,04,28,15,55,12.80
2014,04,28,15,56,12.80
2014,04,28,15,57,12.80
2014,04,28,15,58,12.80
2014,04,28,15,59,12.80
2014,04,28,16,00,12.80
2014,04,28,16,01,12.80
2014,04,28,16,02,12.80
2014,04,28,16,03,12.80
2014,04,28,16,04,12.80
2014,04,28,16,05,12.90
2014,04,28,16,06,12.90
2014,04,28,16,07,12.90
2014,04,28,16,08,12.90
2014,04,28,16,09,12.90
2014,04,28,16,10,13.00
2014,04,28,16,11,13.00
2014,04,28,16,12,13.00
2014,04,28,16,13,13.00
2014,04,28,16,14,13.00
2014,04,28,16,15,13.00
2014,04,28,16,16,13.00
2014,04,28,16,17,13.00
2014,04,28,16,18,13.00
2014,04,28,16,19,12.90
2014,04,28,16,20,12.90
2014,04,28,16,21,12.90
2014,04,28,16,22,12.90
2014,04,28,16,23,12.90
2014,04,28,16,24,12.90
2014,04,28,16,25,13.00
2014,04,28,16,26,13.00
2014,04,28,16,27,12.90
2014,04,28,16,28,12.90
2014,04,28,16,29,12.90
2014,04,28,16,30,12.90
2014,04,28,16,31,12.80
2014,04,28,16,32,12.90
2014,04,28,16,33,12.90
2014,04,28,16,34,12.90
2014,04,28,16,35,12.90
2014,04,28,16,36,12.90
2014,04,28,16,37,13.00
2014,04,28,16,38,13.00
2014,04,28,16,39,13.00
2014,04,28,16,40,12.90
2014,04,28,16,41,13.00
2014,04,28,16,42,13.00
2014,04,28,16,43,13.10
2014,04,28,16,44,13.00
2014,04,28,16,45,13.00
2014,04,28,16,46,12.90
2014,04,28,16,47,12.90
2014,04,28,16,48,12.90
2014,04,28,16,49,13.00
2014,04,28,16,50,13.00
2014,04,28,16,51,13.00
2014,04,28,16,52,13.00
2014,04,28,16,53,13.10
2014,04,28,16,54,13.10
2014,04,28,16,55,13.10
2014,04,28,16,56,13.00
2014,04,28,16,57,13.00
2014,04,28,16,58,12.90
2014,04,28,16,59,12.90
2014,04,28,17,00,13.00
2014,04,28,17,01,13.00
2014,04,28,17,02,13.10
2014,04,28,17,03,13.20
2014,04,28,17,04,13.20
2014,04,28,17,05,13.30
2014,04,28,17,06,13.40
2014,04,28,17,07,13.50
2014,04,28,17,08,13.60
2014,04,28,17,09,13.60
2014,04,28,17,10,13.60
2014,04,28,17,11,13.70
2014,04,28,17,12,13.70
2014,04,28,17,13,13.70
2014,04,28,17,14,13.70
2014,04,28,17,15,13.80
2014,04,28,17,16,13.90
2014,04,28,17,17,13.90
2014,04,28,17,18,14.00
2014,04,28,17,19,14.10
2014,04,28,17,20,14.10
2014,04,28,17,21,14.10
2014,04,28,17,22,14.20
2014,04,28,17,23,14.30
2014,04,28,17,24,14.30
2014,04,28,17,25,14.20
2014,04,28,17,26,14.00
2014,04,28,17,27,13.90
2014,04,28,17,28,13.80
2014,04,28,17,29,13.80
2014,04,28,17,30,13.80
2014,04,28,17,31,13.80
2014,04,28,17,32,13.80
2014,04,28,17,33,13.90
2014,04,28,17,34,13.90
2014,04,28,17,35,14.00
2014,04,28,17,36,14.10
2014,04,28,17,37,14.10
2014,04,28,17,38,14.10
2014,04,28,17,39,14.10
2014,04,28,17,40,14.20
2014,04,28,17,41,14.20
2014,04,28,17,42,14.20